FW7738 Weather Reports


Display with metric or nautical units.
time (UTC)temp
F
wind
direction
speed
MPH
gust
MPH
rain 1hr
in
rain 24hr
in
rain mn
in
humidity
%
barometer
mb
20220924195516 73 54 4.0 6.0 0.00 0.00 0.00 75 1010.5
20220924194551 74 53 5.0 8.0 0.00 0.00 0.00 75 1010.5
20220924193526 74 59 3.0 7.0 0.00 0.00 0.00 75 1010.5
20220924192521 74 57 5.0 10.0 0.00 0.00 0.00 75 1010.3
20220924191517 74 47 6.0 15.0 0.00 0.00 0.00 76 1010.3
20220924190532 74 52 7.0 16.0 0.00 0.00 0.00 77 1010.2
20220924185548 74 51 6.0 11.0 0.00 0.00 0.00 78 1010.1
20220924184523 75 53 8.0 15.0 0.00 0.00 0.00 78 1009.9
20220924183519 75 47 4.0 10.0 0.00 0.00 0.00 77 1009.9
20220924182614 75 50 5.0 9.0 0.00 0.00 0.00 77 1009.8
20220924181530 75 51 4.0 8.0 0.00 0.00 0.00 76 1009.8
20220924180625 75 55 4.0 9.0 0.00 0.00 0.00 76 1009.8
20220924175521 75 62 4.0 9.0 0.00 0.00 0.00 76 1009.8
20220924174517 75 60 4.0 8.0 0.00 0.00 0.00 75 1009.7
20220924173612 75 60 5.0 9.0 0.00 0.00 0.00 74 1009.5
20220924172708 75 87 8.0 15.0 0.00 0.00 0.00 73 1009.5
20220924171542 75 81 6.0 13.0 0.00 0.00 0.00 74 1009.4
20220924170517 75 75 6.0 14.0 0.00 0.00 0.00 73 1009.4
20220924165613 76 87 5.0 11.0 0.00 0.00 0.00 72 1009.2
20220924164549 76 89 8.0 16.0 0.00 0.00 0.00 72 1009.3
20220924163544 76 85 7.0 11.0 0.00 0.00 0.00 72 1009.3
20220924162539 76 85 7.0 13.0 0.00 0.00 0.00 72 1009.3
20220924161535 76 83 7.0 13.0 0.00 0.00 0.00 71 1009.4
20220924160530 75 82 6.0 11.0 0.00 0.00 0.00 72 1009.5
20220924155526 75 64 4.0 8.0 0.00 0.00 0.00 72 1009.5
20220924154601 76 97 7.0 14.0 0.00 0.00 0.00 73 1009.4
20220924153517 76 92 7.0 13.0 0.00 0.00 0.00 72 1009.4
20220924152532 76 92 6.0 10.0 0.00 0.00 0.00 72 1009.4
20220924151528 76 80 6.0 10.0 0.00 0.00 0.00 73 1009.5
20220924150522 76 95 8.0 14.0 0.00 0.00 0.00 71 1009.6
20220924145538 76 97 5.0 14.0 0.00 0.00 0.00 71 1009.7
20220924144535 76 67 5.0 9.0 0.00 0.00 0.00 71 1009.6
20220924143529 75 81 5.0 11.0 0.00 0.00 0.00 71 1009.7
20220924142705 75 68 5.0 13.0 0.00 0.00 0.00 71 1009.8
20220924141520 75 86 6.0 11.0 0.00 0.00 0.00 71 1009.8
20220924140515 76 83 6.0 13.0 0.00 0.00 0.00 71 1009.9
20220924135610 75 69 6.0 11.0 0.00 0.00 0.00 72 1010.0
20220924134526 76 78 5.0 13.0 0.00 0.00 0.00 72 1010.0
20220924133521 76 80 7.0 15.0 0.00 0.00 0.00 72 1010.1
20220924132537 76 93 6.0 13.0 0.00 0.00 0.00 71 1010.3
20220924131533 76 90 9.0 17.0 0.00 0.00 0.00 71 1010.4
20220924130528 77 80 7.0 15.0 0.00 0.00 0.00 71 1010.5
20220924125524 76 98 8.0 15.0 0.00 0.00 0.00 72 1010.6
20220924124519 76 82 7.0 14.0 0.00 0.00 0.00 72 1010.6
20220924123534 76 86 8.0 14.0 0.00 0.00 0.00 71 1010.7
20220924122529 77 80 6.0 14.0 0.00 0.00 0.00 70 1011.0
20220924121605 76 71 6.0 14.0 0.00 0.00 0.00 70 1011.3
20220924120521 76 85 6.0 15.0 0.00 0.00 0.00 70 1011.3
20220924115516 77 96 9.0 18.0 0.00 0.00 0.00 71 1011.6
20220924114551 76 85 8.0 15.0 0.00 0.00 0.00 71 1011.5
20220924113526 77 87 6.0 11.0 0.00 0.00 0.00 70 1011.7
20220924111537 77 90 8.0 16.0 0.00 0.00 0.00 70 1011.8
20220924110533 77 71 6.0 14.0 0.00 0.00 0.00 70 1011.9
20220924105528 77 83 7.0 11.0 0.00 0.00 0.00 70 1012.1
20220924104523 77 77 8.0 16.0 0.00 0.00 0.00 70 1012.1
20220924103519 77 65 7.0 17.0 0.00 0.00 0.00 71 1012.3
20220924102554 76 79 8.0 15.0 0.00 0.00 0.00 72 1012.4
20220924101530 76 75 7.0 15.0 0.00 0.00 0.00 74 1012.4
20220924100525 76 60 8.0 17.0 0.00 0.00 0.00 75 1012.4
20220924095520 76 71 9.0 16.0 0.00 0.00 0.00 75 1012.4
20220924094536 75 62 6.0 16.0 0.00 0.00 0.00 76 1012.3
20220924093531 76 53 7.0 16.0 0.00 0.00 0.00 76 1012.3
20220924092526 76 59 6.0 15.0 0.00 0.00 0.00 76 1012.4
20220924091522 76 70 8.0 19.0 0.00 0.00 0.00 76 1012.4
20220924090637 76 51 7.0 14.0 0.00 0.00 0.00 76 1012.5
20220924085633 76 43 6.0 11.0 0.00 0.00 0.00 77 1012.4
20220924084529 75 51 5.0 11.0 0.00 0.00 0.00 78 1012.3
20220924083525 74 51 4.0 8.0 0.00 0.00 0.00 77 1012.4
20220924082520 74 22 2.0 7.0 0.00 0.00 0.00 76 1012.3
20220924081535 74 346 1.0 3.0 0.00 0.00 0.00 74 1012.1
20220924080550 74 14 1.0 2.0 0.00 0.00 0.00 75 1012.1
20220924075606 73 277 1.0 3.0 0.00 0.00 0.00 75 1012.0
20220924074541 72 308 0.0 1.0 0.00 0.00 0.00 75 1011.8
20220924073536 72 300 0.0 1.0 0.00 0.00 0.00 77 1011.8
20220924072532 71 267 1.0 2.0 0.00 0.00 0.00 78 1011.7
20220924071527 71 259 1.0 2.0 0.00 0.00 0.00 77 1011.6
20220924070603 71 286 1.0 1.0 0.00 0.00 0.00 76 1011.5
20220924065518 71 288 1.0 2.0 0.00 0.00 0.00 76 1011.6
20220924064533 70 231 0.0 1.0 0.00 0.00 0.00 77 1011.4
20220924063549 69 286 2.0 2.0 0.00 0.00 0.00 78 1011.4
20220924062524 69 317 1.0 2.0 0.00 0.00 0.00 79 1011.2
20220924061519 68 297 2.0 4.0 0.00 0.00 0.00 80 1011.1
20220924060534 68 302 2.0 4.0 0.00 0.00 0.00 81 1011.0
20220924055611 68 307 2.0 3.0 0.00 0.00 0.00 83 1011.1
20220924054526 68 332 1.0 2.0 0.00 0.00 0.00 83 1010.8
20220924053521 68 263 2.0 3.0 0.00 0.00 0.00 84 1010.8
20220924052516 68 265 2.0 3.0 0.00 0.00 0.00 84 1010.8
20220924051652 68 250 3.0 4.0 0.00 0.00 0.00 84 1010.6
20220924050607 68 272 2.0 3.0 0.00 0.00 0.00 85 1010.6
20220924045543 68 255 4.0 6.0 0.00 0.00 0.00 86 1010.7
20220924044519 68 262 3.0 4.0 0.00 0.00 0.00 87 1010.5
20220924043534 68 246 2.0 3.0 0.00 0.00 0.00 86 1010.3
20220924042530 68 249 3.0 4.0 0.00 0.00 0.00 87 1010.1
20220924041525 68 266 2.0 4.0 0.00 0.00 0.00 87 1010.1
20220924040521 68 261 2.0 3.0 0.00 0.00 0.00 88 1010.1
20220924035537 68 270 1.0 3.0 0.00 0.00 0.00 88 1010.2
20220924034532 68 279 1.0 2.0 0.00 0.00 0.00 87 1010.3
20220924033547 69 280 1.0 3.0 0.00 0.00 0.00 87 1010.3
20220924032523 69 278 2.0 3.0 0.00 0.00 0.00 87 1010.3
20220924031539 69 273 2.0 4.0 0.00 0.00 0.00 87 1010.5
20220924030534 69 248 4.0 6.0 0.00 0.00 0.00 86 1010.6
20220924025530 69 254 4.0 7.0 0.00 0.00 0.00 86 1010.7
20220924024525 70 263 4.0 7.0 0.00 0.00 0.00 86 1010.8
20220924023541 70 250 4.0 8.0 0.00 0.00 0.00 86 1010.8
20220924022516 70 263 5.0 8.0 0.00 0.00 0.00 85 1011.0
20220924021532 70 252 5.0 8.0 0.00 0.00 0.00 85 1011.1
20220924020527 71 252 4.0 7.0 0.00 0.00 0.00 85 1011.2
20220924015523 71 248 5.0 7.0 0.00 0.00 0.00 85 1011.3
20220924014519 71 264 4.0 7.0 0.00 0.00 0.00 85 1011.5
20220924013535 71 256 5.0 8.0 0.00 0.00 0.00 85 1011.6
20220924012530 71 255 4.0 6.0 0.00 0.00 0.00 85 1011.7
20220924011525 71 254 4.0 4.0 0.00 0.00 0.00 85 1011.8
20220924010541 71 247 4.0 6.0 0.00 0.00 0.00 85 1011.8
20220924005516 71 255 3.0 4.0 0.00 0.00 0.00 85 1012.0
20220924004532 71 267 4.0 7.0 0.00 0.00 0.00 84 1012.0
20220924003527 71 256 4.0 6.0 0.00 0.00 0.00 84 1012.1
20220924002542 72 262 4.0 6.0 0.00 0.00 0.00 84 1012.1
20220924001538 72 260 4.0 7.0 0.00 0.00 0.00 84 1012.2
20220924000534 72 264 3.0 4.0 0.00 0.00 0.00 83 1012.2
20220923235521 72 264 4.0 8.0 0.00 0.00 0.00 83 1012.2
20220923234557 72 257 4.0 6.0 0.00 0.00 0.00 82 1012.3
20220923233533 73 265 3.0 6.0 0.00 0.00 0.00 82 1012.3
20220923232529 73 271 2.0 4.0 0.00 0.00 0.00 82 1012.4
20220923231644 73 282 4.0 7.0 0.00 0.00 0.00 82 1012.5
20220923230520 73 286 4.0 6.0 0.00 0.00 0.00 82 1012.6
20220923225515 73 285 4.0 7.0 0.00 0.00 0.00 82 1012.6
20220923224531 73 276 4.0 7.0 0.00 0.00 0.00 81 1012.7
20220923223526 74 277 4.0 6.0 0.00 0.00 0.00 80 1012.7
20220923222522 74 272 3.0 4.0 0.00 0.00 0.00 79 1012.8
20220923221517 74 274 3.0 4.0 0.00 0.00 0.00 79 1012.9
20220923220532 74 288 3.0 4.0 0.00 0.00 0.00 79 1012.9
20220923215528 74 294 2.0 4.0 0.00 0.00 0.00 79 1013.1
20220923214524 74 319 3.0 6.0 0.00 0.00 0.00 79 1013.1
20220923213519 74 329 2.0 3.0 0.00 0.00 0.00 79 1013.1
20220923212535 74 334 1.0 3.0 0.00 0.00 0.00 79 1013.1
20220923211530 74 312 3.0 4.0 0.00 0.00 0.00 79 1013.2
20220923210525 75 306 3.0 4.0 0.00 0.00 0.00 79 1013.0
20220923205521 75 326 3.0 4.0 0.00 0.00 0.00 79 1013.1
20220923204516 75 291 2.0 3.0 0.00 0.00 0.00 79 1013.0
20220923203551 75 298 2.0 3.0 0.00 0.00 0.00 78 1013.0
20220923202528 75 316 2.0 3.0 0.00 0.00 0.00 78 1013.1
20220923201543 76 344 3.0 3.0 0.00 0.00 0.00 77 1013.2
20220923200518 75 310 2.0 3.0 0.00 0.00 0.00 77 1013.1